Regional Weather Roundup
Issued by NWS Upton, NY

Current Version | Previous Version | Text Only | Print | Product List | Glossary On
Versions: 1 2 3 4 5 6 7 8 9 10 11 12 13 14 15 16 17 18 19 20 21 22 23 24 25 26 27
000
ASUS41 KOKX 301404
RWROKX

REGIONAL WEATHER ROUNDUP
NATIONAL WEATHER SERVICE NEW YORK NY
1000 AM EDT SAT JUL 30 2016

NOTE: "FAIR" INDICATES FEW OR NO CLOUDS BELOW 12,000 FEET WITH NO
SIGNIFICANT WEATHER AND/OR OBSTRUCTIONS TO VISIBILITY.

NYZ071-072-176-178-NJZ106-104-301500-
NEW YORK CITY METRO AREA

CITY           SKY/WX    TMP DP  RH WIND       PRES   REMARKS
Central Park   MOSUNNY   79  69  71 NE7       30.03F
LaGuardia APRT PTSUNNY   78  69  73 NE12      30.00F
Kennedy INTL   PTSUNNY   82  71  69 E3        30.00F
Newark/Liberty PTSUNNY   80  71  74 N5        29.99F
Bronx Bot Gard   N/A     77  64  65 NE10      30.03S
Wall St Helipt SUNNY     81  72  74 NE7       30.01S
Teterboro      PTSUNNY   78  68  71 NE6       29.99F
$$

NYZ177-179-078>081-301500-
LONG ISLAND NEW YORK

CITY           SKY/WX    TMP DP  RH WIND       PRES   REMARKS
Farmingdale    MOSUNNY   80  71  74 NE6       30.01S
MacArthur/ISP  PTSUNNY   80  71  74 CALM      30.00S
Shirley        SUNNY     80  71  74 CALM      30.01F
Riverhead      NOT AVBL
Westhampton    PTSUNNY   78  69  73 CALM      30.03R
Southhampton     N/A     79  72  78 N1        29.97S
Bridgehampton    N/A     79  72  78 CALM      30.01R
East Hampton   CLOUDY    79  71  77 CALM      30.01S
Montauk          N/A     76  69  79 NE7       30.03R
$$

NYZ052-065-067-301500-
HUDSON VALLEY

CITY           SKY/WX    TMP DP  RH WIND       PRES   REMARKS
White Plains   CLOUDY    74  66  76 E5        30.02F
Newburgh       PTSUNNY   73  64  73 E8        30.05R
Montgomery     CLOUDY    74  64  71 NE6       30.03S
Poughkeepsie   CLOUDY    77  62  59 VRB6      30.02F
Albany         PTSUNNY   73  61  65 N5        30.06S
$$

NJZ001-105-106-008-010-013-015-019>022-104-301500-
NEW JERSEY

CITY           SKY/WX    TMP DP  RH WIND       PRES   REMARKS
Newark/Liberty PTSUNNY   80  71  74 N5        29.99F
Teterboro      PTSUNNY   78  68  71 NE6       29.99F
Caldwell       PTSUNNY   78  69  73 E7        30.01F
Morristown     PTSUNNY   77  66  69 NE5       30.01F
Somerville     MOSUNNY   81  70  69 S5        29.98S
Linden         FAIR      81  69  67 E3        30.01S
Sussex         CLOUDY    73  65  75 NE7       30.04R
Abdover          N/A     74  66  76 VRB5      30.04R
Trenton        PTSUNNY   80  73  79 SW5       30.00R
Millville      SUNNY     83  74  74 VRB3      30.00F
Atlantic City  SUNNY     83  69  62 S7        30.00F
Wrightstown    CLOUDY    77  73  88 VRB1      29.98S
Toms River     CLOUDY    78  73  84 SW3       30.01F
Belmar         MOSUNNY   80  73  79 S7        30.01F
$$

PAZ047>061-062-071-301500-
EASTERN PENNSYLVANIA

CITY           SKY/WX    TMP DP  RH WIND       PRES   REMARKS
Philadelphia   CLOUDY    83  73  72 VRB3      29.99S
Allentown      PTSUNNY   79  69  71 NE6       30.01S
Scranton       MOSUNNY   82  65  56 N6        30.01F
$$

CTZ002-004>006-009-010-012-RIZ004-006-007-MAZ004-011-015-301500-
SOUTHERN NEW ENGLAND
 IN CT

CITY           SKY/WX    TMP DP  RH WIND       PRES   REMARKS
Bradley INTL   PTSUNNY   78  59  51 N8        30.04S
Hartford       SUNNY     80  63  55 N6        30.02F
Danbury        CLOUDY    74  62  66 NE6       30.04F
Wtrbury/Oxford MOSUNNY   75  61  60 E7        30.06S
Bridgeport     CLOUDY    78  65  63 E6        30.01S
Meriden        SUNNY     81  61  50 N8        30.02F
New Haven      MOSUNNY   79  66  64 NE7       30.02R
Chester        FAIR      77  66  69 NE6       30.03S
Groton         SUNNY     78  69  73 S7        30.01R
Wilimantic     SUNNY     79  63  57 VRB6      30.04R

 IN RI

CITY           SKY/WX    TMP DP  RH WIND       PRES   REMARKS
Providence     PTSUNNY   80  61  52 NE7       30.02S
Block Island   SUNNY     75  70  84 NE8       30.03R
Westerly       SUNNY     81  65  58 VRB3      30.02R
 IN MA

CITY           SKY/WX    TMP DP  RH WIND       PRES   REMARKS
Boston         MOSUNNY   79  59  50 NE7       30.02R
Worchester     SUNNY     73  54  51 NE8       30.07R
Westfield      MOSUNNY   77  59  53 NE7       30.04S
Provincetown   SUNNY     74  66  76 N9        30.02R
Nantucket      MOSUNNY   76  69  79 N7        30.01R
$$

ANZ330-335-338-340-345-350-353-355-301500-
COASTAL MARINE OBSERVATIONS


STATION/POSITION TIME  SKY/WX   TEMP    WIND        PRES    VSBY  WAVE
                                AIR SEA DIR/SP/G                  HT/PER
                 (UTC)          (F)     (DEG/KT/KT) (MB)    (MI)  (FT/S)
NY HARB ENTRANCE 1250            74 73  260/  2/  2 1015.8          2/ 6
20S FIRE ISLAND  1250            76 75  290/  4/  4 1015.8          2/ 5
GREAT SOUTH BAY  1300            77 81   90/  2/  4   N/A
23 SSW MONTAUK P 1250            73 71   10/  2/  2 1016.5          2/ 6
15 E BARNEGAT LI 1300               78                N/A           2/ 6
HUDSON CANYON    1250            78 77              1016.0          3/ 6
KINGS POINT      1300            74 73              1016.2
EXECUTION ROCKS  1300            74      50/ 10/ 12   N/A
CENTRAL LI SOUND 1300            72 74   60/  6/  8   N/A           1
EASTERN LI SOUND 1300            74 68   30/  2/  4   N/A
ROBBINS REEF     1300            77      40/  2/  2 1015.3
$$


>>>>>>>>>>>>>>>>>>>>>>>>>>>> KEY <<<<<<<<<<<<<<<<<<<<<<<<<<<
>                                                          <
>     SKY/WX - Sky Condition/Present Weather               <
>     TMP    - Temperature in Fahrenheit                   <
>     DP     - Dew Point in Fahrenheit                     <
>     RH     - Relative Humidity in Percent                <
>     WIND   - Direction (from) and Speed in MPH           <
>     PRES   - Mean Sea Level Pressure (inches of Hg)      <
>     WCI    - Wind Chill Index                            <
>     VSB    - VISIBILITY IN MILES                         <
>     HX     - HEAT INDEX                                  <
>     TC     - TEMPERATURE IN CELSIUS                      <
>     VRB    - VARIABLE WIND DIRECTION                     <
>                                                          <
>>>>>>>>>>>>>>>>>>>>>>>>>>>> KEY <<<<<<<<<<<<<<<<<<<<<<<<<<<




USA.gov is the U.S. government's official web portal to all federal, state and local government web resources and services.